Weather in Sokur

Russia / Novosibirsk Oblast     55˚12′07″N   83˚17′49″E
temp.,
°C
wind,
m/s
gust,
m/s
humid.,
%
clouds,
%
prec.,
mm/h
press.,
hPa
HPBL,
m
18 january, mon
mon1801:00−11˚ssw71495100 0.1 1015342
04:00−10˚ssw91890100 0.0 1012463
07:00−8˚ssw101790100 0.1 1009721
10:00−8˚sw71393100 0.8 1008682
13:00−8˚sw81391100 0.9 1009939
16:00−10˚wsw81389100 0.3 1010838
19:00−14˚wsw71493100 0.3 1013589
22:00−17˚w61395100 0.1 1016462
19 january, tue
tue1901:00−21˚wsw51199100 0.1 1018266
04:00−24˚sw489988 0.0 1021138
07:00−25˚sw599981 0.0 1022173
10:00−25˚sw499968 0.0 1023146
13:00−21˚sw599581 0.0 1023293
16:00−19˚sw5109398 0.0 1022385
19:00−20˚wsw599599 0.0 1023315
22:00−25˚wsw349987 0.0 102473
20 january, wed
wed2001:00−27˚w2310071 0.0 102522
04:00−29˚w2210022 0.0 102719
07:00−31˚nne1210012 0.0 102919
10:00−31˚e22970 0.0 103019
13:00−26˚e239318 0.0 1030154
16:00−25˚ene349370 0.0 1029172
19:00−28˚e459381 0.0 102985
22:00−27˚e4692100 0.0 1028118
21 january, thu
thu2101:00−25˚e4790100 0.0 1025135
04:00−22˚e5788100 0.0 1023173
07:00−20˚e4799100 0.8 1020195
10:00−18˚e3497100 1.0 1018128
13:00−15˚wsw3594100 1.1 1018272
16:00−16˚sw4695100 0.1 1018330
19:00−17˚ssw3797100 0.1 1017156
22:00−16˚ssw3597100 0.0 1014127
22 january, fri
fri2201:00−15˚sse2496100 0.3 1011161
04:00−14˚ene2297100 1.3 100782
07:00−14˚n2397100 2.8 1005110
10:00−17˚w239792 0.3 100638
13:00−14˚wsw699390 0.4 1009495
16:00−18˚wsw61191100 0.1 1012501
19:00−23˚wsw5109574 0.1 1016223
22:00−26˚sw599691 0.0 1019222